Billings, MT

5:27 AM MST on February 26, 2017 (GMT -0700)
Billings Logan International

Weather History for KBIL - January, 2015

Change the Weather History Date:

Sunday, January 11, 2015

  Actual Average Record
Temperature  
Mean Temperature 17 °F 27 °F  
Max Temperature 22 °F 36 °F 68 °F (1953)
Min Temperature 11 °F 17 °F -23 °F (1997)
Degree Days  
Heating Degree Days 48 38  
Month to date heating degree days 523 425  
Since 1 July heating degree days 3206 3246  
Cooling Degree Days 0 0  
Month to date cooling degree days 0 0  
Year to date cooling degree days 0 0  
Moisture  
Dew Point 13 °F    
Average Humidity 82    
Maximum Humidity 92    
Minimum Humidity 71    
Precipitation  
Precipitation 0.19 in 0.01 in 0.40 in (1998)
Month to date precipitation 1.02 0.17  
Year to date precipitation 1.02 0.17  
Snow  
Snow 2.50 in 0.30 in 7.10 in (2013)
Month to date snowfall 17.7 3.1  
Since 1 July snowfall 39.3 23.0  
Snow Depth 11.00 in    
Sea Level Pressure  
Sea Level Pressure 30.25 in    
Wind  
Wind Speed 8 mph (NE)    
Max Wind Speed 15 mph    
Max Gust Speed 19 mph    
Visibility 6 miles    
Events Fog , Snow    
T = Trace of Precipitation, MM = Missing Value Source: NWS Daily Summary

Daily Weather History Graph

Daily Weather History Graph

Search for Another Location

Airport or City:

Trip Planner

Search our weather history database for the weather conditions in past years. The results will help you decide how hot, cold, wet, or windy it might be!

Date:

Astronomy

Jan. 11, 2015 Rise Set
Actual Time 7:53 AM MST 4:50 PM MST
Civil Twilight 7:19 AM MST 5:24 PM MST
Nautical Twilight 6:42 AM MST 6:01 PM MST
Astronomical Twilight 6:06 AM MST 6:37 PM MST
Moon 11:38 PM MST (1/11) 10:50 AM MST (1/11)
Length of Visible Light 10h 04m
Length of Day
8h 57m
Waning Gibbous, 65% of the Moon is Illuminated
Jan 11
Waning Gibbous
Jan 13
Last Quarter
Jan 20
New
Jan 26
First Quarter
Feb 3
Full

Hourly Weather History & Observations

Time (MST) Temp. Windchill Dew Point Humidity Pressure Visibility Wind Dir Wind Speed Gust Speed Precip Events Conditions
12:53 AM 21.0 °F 10.6 °F 14.0 °F 74% 30.02 in 10.0 mi NNE 9.2 mph - N/A   Overcast
1:53 AM 19.9 °F 9.3 °F 12.9 °F 74% 30.06 in 9.0 mi NE 9.2 mph - 0.00 in Snow Light Snow
2:35 AM 19.9 °F 11.1 °F 15.1 °F 81% 29.95 in 3.0 mi NNE 6.9 mph - 0.01 in Snow Light Snow
2:40 AM 19.9 °F 12.1 °F 15.1 °F 81% 29.96 in 2.0 mi NNE 5.8 mph - 0.01 in Snow Light Snow
2:48 AM 19.4 °F 10.4 °F 15.8 °F 86% 29.96 in 1.2 mi NNE 6.9 mph - 0.01 in Snow Light Snow
2:53 AM 19.9 °F 12.1 °F 16.0 °F 85% 30.09 in 1.2 mi NNE 5.8 mph - 0.01 in Snow Light Snow
3:18 AM 19.9 °F 14.9 °F 17.1 °F 89% 29.97 in 1.5 mi NNE 3.5 mph - 0.01 in Snow Light Snow
3:53 AM 19.0 °F 8.2 °F 16.0 °F 88% 30.12 in 2.0 mi NE 9.2 mph - 0.02 in Snow Light Snow
3:59 AM 19.0 °F 8.2 °F 16.0 °F 88% 29.99 in 1.5 mi NE 9.2 mph - 0.00 in Snow Light Snow
4:10 AM 19.0 °F 7.5 °F 16.0 °F 88% 29.99 in 1.2 mi NE 10.4 mph - 0.01 in Snow Light Snow
4:53 AM 18.0 °F 4.8 °F 15.1 °F 88% 30.15 in 1.2 mi NE 12.7 mph - 0.03 in Snow Light Snow
5:53 AM 17.1 °F 5.8 °F 14.0 °F 88% 30.19 in 1.2 mi NE 9.2 mph - 0.02 in Snow Light Snow
6:35 AM 16.0 °F 2.9 °F 12.9 °F 88% 30.06 in 2.0 mi NE 11.5 mph - 0.01 in Snow Light Snow
6:53 AM 16.0 °F 2.9 °F 14.0 °F 92% 30.22 in 1.5 mi NE 11.5 mph - 0.01 in Snow Light Snow
7:17 AM 16.0 °F 3.6 °F 12.9 °F 88% 30.08 in 2.5 mi NE 10.4 mph - 0.01 in Snow Light Snow
7:31 AM 16.0 °F 3.6 °F 12.9 °F 88% 30.10 in 1.2 mi NE 10.4 mph - 0.02 in Snow Light Snow
7:40 AM 16.0 °F 3.6 °F 12.9 °F 88% 30.10 in 2.0 mi NE 10.4 mph - 0.02 in Snow Light Snow
7:53 AM 16.0 °F 3.6 °F 12.9 °F 88% 30.27 in 2.0 mi NE 10.4 mph - 0.02 in Snow Light Snow
8:11 AM - - - N/A% - - NE 11.5 mph - N/A   Unknown
8:18 AM 16.0 °F 2.9 °F 12.9 °F 88% 30.13 in 1.0 mi ENE 11.5 mph - 0.01 in Snow Light Snow
8:30 AM 16.0 °F 3.6 °F 12.9 °F 88% 30.14 in 0.8 mi NE 10.4 mph - 0.01 in Snow Light Snow
8:53 AM 16.0 °F 5.3 °F 12.9 °F 88% 30.32 in 0.5 mi ENE 8.1 mph - 0.02 in Fog , Snow Snow
9:53 AM 16.0 °F 6.3 °F 12.9 °F 88% 30.35 in 1.0 mi ENE 6.9 mph - 0.03 in Snow Light Snow
10:13 AM 17.1 °F 6.6 °F 12.9 °F 84% 30.20 in 1.5 mi NE 8.1 mph - 0.01 in Snow Light Snow
10:29 AM 17.1 °F 6.6 °F 12.9 °F 84% 30.21 in 1.0 mi NE 8.1 mph - 0.01 in Snow Light Snow
10:53 AM 17.1 °F 6.6 °F 12.9 °F 84% 30.36 in 1.8 mi NE 8.1 mph - 0.02 in Snow Light Snow
11:53 AM 17.1 °F 6.6 °F 12.9 °F 84% 30.37 in 1.8 mi NE 8.1 mph - 0.01 in Snow Light Snow
12:09 PM 17.1 °F 6.6 °F 12.9 °F 84% 30.21 in 2.0 mi NNE 8.1 mph - 0.00 in Snow Light Snow
12:21 PM 17.1 °F 6.6 °F 12.9 °F 84% 30.21 in 3.0 mi NE 8.1 mph - 0.00 in Snow Light Snow
12:53 PM 18.0 °F 7.7 °F 12.9 °F 81% 30.37 in 10.0 mi NNE 8.1 mph - 0.00 in   Overcast
1:53 PM 18.0 °F 9.8 °F 12.9 °F 81% 30.38 in 10.0 mi ENE 5.8 mph - N/A   Overcast
2:02 PM 18.0 °F 7.7 °F 12.9 °F 81% 30.23 in 10.0 mi ENE 8.1 mph - N/A   Overcast
2:53 PM 18.0 °F 6.9 °F 12.0 °F 78% 30.41 in 10.0 mi ENE 9.2 mph - N/A   Mostly Cloudy
3:05 PM 18.0 °F 6.9 °F 12.0 °F 78% 30.25 in 10.0 mi East 9.2 mph - N/A   Overcast
3:22 PM 18.0 °F 6.9 °F 12.0 °F 78% 30.25 in 10.0 mi East 9.2 mph - N/A   Overcast
3:53 PM 18.0 °F 6.9 °F 12.0 °F 78% 30.42 in 10.0 mi East 9.2 mph - N/A   Overcast
4:12 PM 17.1 °F 7.6 °F 12.0 °F 81% 30.27 in 10.0 mi ENE 6.9 mph - N/A   Overcast
4:53 PM 17.1 °F 8.7 °F 12.0 °F 81% 30.44 in 10.0 mi ENE 5.8 mph - N/A   Overcast
5:01 PM 17.1 °F 10.0 °F 12.0 °F 81% 30.28 in 10.0 mi ENE 4.6 mph - N/A   Overcast
5:53 PM 16.0 °F 7.4 °F 12.0 °F 84% 30.47 in 10.0 mi NNE 5.8 mph - N/A   Overcast
6:53 PM 16.0 °F 7.4 °F 10.9 °F 81% 30.48 in 10.0 mi NE 5.8 mph - N/A   Overcast
7:53 PM 15.1 °F 3.3 °F 12.0 °F 88% 30.49 in 10.0 mi NNE 9.2 mph - N/A   Overcast
8:53 PM 15.1 °F 6.4 °F 10.9 °F 84% 30.51 in 10.0 mi NE 5.8 mph - N/A   Overcast
9:31 PM 14.0 °F 5.1 °F 10.9 °F 88% 30.33 in 10.0 mi NE 5.8 mph - N/A   Mostly Cloudy
9:53 PM 14.0 °F 6.5 °F 10.9 °F 88% 30.52 in 10.0 mi NNE 4.6 mph - N/A   Mostly Cloudy
10:53 PM 14.0 °F 5.1 °F 10.9 °F 88% 30.52 in 10.0 mi NNE 5.8 mph - N/A   Overcast
11:41 PM 12.9 °F 6.9 °F 9.0 °F 84% 30.34 in 10.0 mi North 3.5 mph - N/A   Scattered Clouds
11:53 PM 10.9 °F 2.9 °F 9.0 °F 92% 30.53 in 10.0 mi North 4.6 mph - N/A   Scattered Clouds